This is the latest recevied weather packets stored in our database for station/object W6SNO-1. If no packets are shown the sender has not sent any weather packets the latest 10 day(s).
| Time | Temp. | Humidity | Pressure | Rain* | Wind** | Luminosity | Snow |
|---|---|---|---|---|---|---|---|
| 1778085427 | 15° C | 79% | 1020.5 hPa | 0 mm | - | 207 W/m² | - |
| 1778084819 | 14.44° C | 80% | 1020.8 hPa | 0 mm | - | 163 W/m² | - |
| 1778084517 | 14.44° C | 80% | 1020.8 hPa | 0 mm | - | 163 W/m² | - |
| 1778083608 | 13.89° C | 82% | 1020.7 hPa | 0 mm | - | 117 W/m² | - |
| 1778083305 | 13.89° C | 82% | 1020.8 hPa | 0 mm | - | 117 W/m² | - |
| 1778083003 | 13.89° C | 83% | 1020.8 hPa | 0 mm | - | 93 W/m² | - |
| 1778082700 | 13.89° C | 83% | 1020.7 hPa | 0 mm | - | 93 W/m² | - |
| 1778081562 | 13.33° C | 84% | 1020.7 hPa | 0 mm | - | 79 W/m² | - |
| 1778081259 | 13.33° C | 84% | 1020.6 hPa | 0 mm | - | 68 W/m² | - |
| 1778080956 | 13.33° C | 85% | 1020.8 hPa | 0 mm | - | 53 W/m² | - |
| 1778080655 | 13.33° C | 85% | 1020.7 hPa | 0 mm | - | 53 W/m² | - |
| 1778080351 | 13.33° C | 85% | 1020.7 hPa | 0 mm | - | 55 W/m² | - |
| 1778080048 | 13.33° C | 85% | 1020.6 hPa | 0 mm | - | 55 W/m² | - |
| 1778079745 | 13.33° C | 85% | 1020.6 hPa | 0 mm | - | 56 W/m² | - |
| 1778079442 | 13.33° C | 85% | 1020.7 hPa | 0 mm | - | 54 W/m² | - |
| 1778078533 | 13.33° C | 85% | 1020.8 hPa | 0 mm | - | 38 W/m² | - |
| 1778078231 | 13.33° C | 85% | 1020.5 hPa | 0 mm | - | 38 W/m² | - |
| 1778077928 | 13.33° C | 86% | 1020.7 hPa | 0 mm | - | 37 W/m² | - |
| 1778076417 | 13.33° C | 85% | 1020.5 hPa | 0 mm | - | 15 W/m² | - |
| 1778076114 | 13.33° C | 85% | 1020.3 hPa | 0 mm | - | 15 W/m² | - |
| 1778075507 | 13.33° C | 86% | 1020.2 hPa | 0 mm | - | 12 W/m² | - |
| 1778075204 | 13.33° C | 86% | 1020 hPa | 0 mm | - | 12 W/m² | - |
| 1778074900 | 12.78° C | 86% | 1020 hPa | 0 mm | - | 9 W/m² | - |
| 1778072174 | 12.78° C | 86% | 1019.6 hPa | 0 mm | - | 0 W/m² | - |
| 1778071872 | 12.78° C | 86% | 1019.5 hPa | 0 mm | - | 0 W/m² | - |
* Rain latest hour (hover to see other rain measurements)
** Current wind speed in m/s (hover to see current wind gust speed)